Time,TemperatureF,DewpointF,PressureIn,WindDirection,WindDirectionDegrees,WindSpeedMPH,WindSpeedGustMPH,Humidity,HourlyPrecipIn,Conditions,Clouds,dailyrainin,SoftwareType,DateUTC
2013-09-26 00:02:00,55.1,45.5,29.73,NE,35,0.0,0.0,70,0.00,CLR,,0.00,WeatherDisplay:10.37,2013-09-26 07:02:00,
2013-09-26 00:07:00,55.4,45.0,29.73,NE,35,0.0,0.0,68,0.00,CLR,,0.00,WeatherDisplay:10.37,2013-09-26 07:07:00,
2013-09-26 00:12:00,55.5,44.7,29.73,NNW,341,0.0,0.0,67,0.00,CLR,,0.00,WeatherDisplay:10.37,2013-09-26 07:12:00,
2013-09-26 00:17:00,55.8,44.6,29.73,NNW,341,1.2,0.0,66,0.00,CLR,,0.00,WeatherDisplay:10.37,2013-09-26 07:17:00,
2013-09-26 00:22:00,56.1,44.5,29.73,NNW,328,0.0,0.3,65,0.00,CLR,,0.00,WeatherDisplay:10.37,2013-09-26 07:22:00,
2013-09-26 00:27:00,56.3,44.7,29.74,NNW,328,0.0,0.0,65,0.00,CLR,,0.00,WeatherDisplay:10.37,2013-09-26 07:27:00,
2013-09-26 00:32:00,56.3,44.7,29.73,NNW,328,0.0,0.0,65,0.00,CLR,,0.00,WeatherDisplay:10.37,2013-09-26 07:32:00,
2013-09-26 00:37:00,56.2,44.6,29.74,NNW,328,1.2,0.0,65,0.00,CLR,,0.00,WeatherDisplay:10.37,2013-09-26 07:37:00,
2013-09-26 00:42:00,56.1,44.5,29.74,NNW,328,0.0,0.0,65,0.00,CLR,,0.00,WeatherDisplay:10.37,2013-09-26 07:42:00,
2013-09-26 00:47:00,56.0,44.4,29.74,NNW,328,1.2,0.0,65,0.00,CLR,,0.00,WeatherDisplay:10.37,2013-09-26 07:47:00,
2013-09-26 00:52:00,56.0,44.4,29.74,WSW,256,0.0,0.0,65,0.00,CLR,,0.00,WeatherDisplay:10.37,2013-09-26 07:52:00,
2013-09-26 00:57:00,56.1,44.5,29.74,WNW,293,1.2,0.0,65,0.00,CLR,,0.00,WeatherDisplay:10.37,2013-09-26 07:57:00,
2013-09-26 01:02:00,56.0,44.4,29.74,WNW,290,1.2,0.0,65,0.00,CLR,,0.00,WeatherDisplay:10.37,2013-09-26 08:02:00,
2013-09-26 01:07:00,55.9,44.7,29.74,WNW,290,0.0,0.0,66,0.00,CLR,,0.00,WeatherDisplay:10.37,2013-09-26 08:07:00,
2013-09-26 01:12:00,55.7,44.5,29.74,WNW,290,0.0,0.0,66,0.00,CLR,,0.00,WeatherDisplay:10.37,2013-09-26 08:12:00,
2013-09-26 01:17:00,55.6,45.2,29.74,WNW,290,0.0,0.0,68,0.00,CLR,,0.00,WeatherDisplay:10.37,2013-09-26 08:17:00,
2013-09-26 01:22:00,55.4,45.4,29.74,WNW,291,0.0,0.0,69,0.00,CLR,,0.00,WeatherDisplay:10.37,2013-09-26 08:22:00,
2013-09-26 01:27:00,55.0,45.0,29.74,WNW,293,0.0,0.0,69,0.00,CLR,,0.00,WeatherDisplay:10.37,2013-09-26 08:27:00,
2013-09-26 01:32:00,54.6,44.6,29.74,WNW,290,0.0,0.0,69,0.00,CLR,,0.00,WeatherDisplay:10.37,2013-09-26 08:32:00,
2013-09-26 01:37:00,54.2,44.6,29.74,WNW,290,0.0,0.0,70,0.00,CLR,,0.00,WeatherDisplay:10.37,2013-09-26 08:37:00,
2013-09-26 01:42:00,53.9,45.1,29.74,WNW,290,0.0,0.0,72,0.00,CLR,,0.00,WeatherDisplay:10.37,2013-09-26 08:42:00,
2013-09-26 01:47:00,53.6,45.2,29.74,WNW,290,0.0,0.0,73,0.00,CLR,,0.00,WeatherDisplay:10.37,2013-09-26 08:47:00,
2013-09-26 01:52:00,53.2,45.1,29.74,WNW,290,0.0,0.0,74,0.00,CLR,,0.00,WeatherDisplay:10.37,2013-09-26 08:52:00,
2013-09-26 01:57:00,52.9,44.8,29.75,WNW,291,0.0,0.0,74,0.00,CLR,,0.00,WeatherDisplay:10.37,2013-09-26 08:57:00,
2013-09-26 02:02:00,52.5,44.8,29.75,WNW,290,0.0,0.0,75,0.00,CLR,,0.00,WeatherDisplay:10.37,2013-09-26 09:02:00,
2013-09-26 02:07:00,52.2,44.5,29.75,WNW,290,0.0,0.0,75,0.00,CLR,,0.00,WeatherDisplay:10.37,2013-09-26 09:07:00,
2013-09-26 02:12:00,52.0,44.3,29.75,WNW,291,0.0,0.0,75,0.00,CLR,,0.00,WeatherDisplay:10.37,2013-09-26 09:12:00,
2013-09-26 02:17:00,51.8,44.5,29.75,WNW,291,0.0,0.0,76,0.00,CLR,,0.00,WeatherDisplay:10.37,2013-09-26 09:17:00,
2013-09-26 02:22:00,51.6,44.3,29.75,WNW,290,0.0,0.0,76,0.00,CLR,,0.00,WeatherDisplay:10.37,2013-09-26 09:22:00,
2013-09-26 02:27:00,51.6,44.6,29.75,WNW,291,0.0,0.0,77,0.00,CLR,,0.00,WeatherDisplay:10.37,2013-09-26 09:27:00,
2013-09-26 02:32:00,51.4,44.4,29.75,WNW,290,0.0,0.0,77,0.00,CLR,,0.00,WeatherDisplay:10.37,2013-09-26 09:32:00,
2013-09-26 02:37:00,51.4,44.8,29.75,WNW,291,0.0,0.0,78,0.00,CLR,,0.00,WeatherDisplay:10.37,2013-09-26 09:37:00,
2013-09-26 02:42:00,51.4,45.1,29.74,WNW,290,0.0,0.0,79,0.00,CLR,,0.00,WeatherDisplay:10.37,2013-09-26 09:42:00,
2013-09-26 02:47:00,51.3,44.7,29.74,WNW,290,0.0,0.0,78,0.00,CLR,,0.00,WeatherDisplay:10.37,2013-09-26 09:47:00,
2013-09-26 02:52:00,51.2,44.6,29.74,WNW,290,0.0,0.0,78,0.00,CLR,,0.00,WeatherDisplay:10.37,2013-09-26 09:52:00,
2013-09-26 02:57:00,51.1,44.8,29.74,WNW,291,0.0,0.0,79,0.00,CLR,,0.00,WeatherDisplay:10.37,2013-09-26 09:57:00,
2013-09-26 03:02:00,50.9,44.6,29.75,WNW,290,0.0,0.0,79,0.00,CLR,,0.00,WeatherDisplay:10.37,2013-09-26 10:02:00,
2013-09-26 03:07:00,50.6,44.3,29.75,WNW,291,0.0,0.0,79,0.00,CLR,,0.00,WeatherDisplay:10.37,2013-09-26 10:07:00,
2013-09-26 03:12:00,50.3,44.0,29.75,WNW,290,0.0,0.0,79,0.00,CLR,,0.00,WeatherDisplay:10.37,2013-09-26 10:12:00,
2013-09-26 03:17:00,50.2,44.3,29.75,WNW,290,0.0,0.0,80,0.00,CLR,,0.00,WeatherDisplay:10.37,2013-09-26 10:17:00,
2013-09-26 03:22:00,50.0,44.1,29.75,WNW,291,0.0,0.0,80,0.00,CLR,,0.00,WeatherDisplay:10.37,2013-09-26 10:22:00,
2013-09-26 03:27:00,49.9,44.3,29.75,WNW,290,0.0,0.0,81,0.00,CLR,,0.00,WeatherDisplay:10.37,2013-09-26 10:27:00,
2013-09-26 03:32:00,49.8,44.2,29.75,WNW,291,0.0,0.0,81,0.00,CLR,,0.00,WeatherDisplay:10.37,2013-09-26 10:32:00,
2013-09-26 03:37:00,49.7,44.1,29.75,WNW,290,0.0,0.0,81,0.00,CLR,,0.00,WeatherDisplay:10.37,2013-09-26 10:37:00,
2013-09-26 03:42:00,49.5,43.9,29.75,WNW,290,0.0,0.0,81,0.00,CLR,,0.00,WeatherDisplay:10.37,2013-09-26 10:42:00,
2013-09-26 03:47:00,49.4,44.1,29.75,WNW,291,0.0,0.0,82,0.00,CLR,,0.00,WeatherDisplay:10.37,2013-09-26 10:47:00,
2013-09-26 03:52:00,49.3,44.0,29.75,WNW,290,0.0,0.0,82,0.00,CLR,,0.00,WeatherDisplay:10.37,2013-09-26 10:52:00,
2013-09-26 03:57:00,49.2,44.3,29.75,WNW,291,0.0,0.0,83,0.00,CLR,,0.00,WeatherDisplay:10.37,2013-09-26 10:57:00,
2013-09-26 04:02:00,49.1,44.2,29.75,WNW,291,0.0,0.0,83,0.00,CLR,,0.00,WeatherDisplay:10.37,2013-09-26 11:02:00,
2013-09-26 04:07:00,49.0,44.1,29.75,WNW,291,0.0,0.0,83,0.00,CLR,,0.00,WeatherDisplay:10.37,2013-09-26 11:07:00,
2013-09-26 04:12:00,49.0,44.1,29.75,WNW,290,0.0,0.0,83,0.00,CLR,,0.00,WeatherDisplay:10.37,2013-09-26 11:12:00,
2013-09-26 04:17:00,48.9,44.0,29.75,WNW,291,0.0,0.0,83,0.00,CLR,,0.00,WeatherDisplay:10.37,2013-09-26 11:17:00,
2013-09-26 04:22:00,48.9,44.0,29.75,WNW,291,0.0,0.0,83,0.00,CLR,,0.00,WeatherDisplay:10.37,2013-09-26 11:22:00,
2013-09-26 04:27:00,48.9,44.0,29.76,WNW,290,0.0,0.0,83,0.00,CLR,,0.00,WeatherDisplay:10.37,2013-09-26 11:27:00,
2013-09-26 04:32:00,48.8,43.9,29.76,WNW,290,0.0,0.0,83,0.00,CLR,,0.00,WeatherDisplay:10.37,2013-09-26 11:32:00,
2013-09-26 04:37:00,48.8,44.2,29.76,WNW,290,0.0,0.0,84,0.00,CLR,,0.00,WeatherDisplay:10.37,2013-09-26 11:37:00,
2013-09-26 04:42:00,48.7,43.8,29.76,WNW,290,0.0,0.0,83,0.00,CLR,,0.00,WeatherDisplay:10.37,2013-09-26 11:42:00,
2013-09-26 04:47:00,48.9,44.3,29.76,WNW,291,0.0,0.0,84,0.00,CLR,,0.00,WeatherDisplay:10.37,2013-09-26 11:47:00,
2013-09-26 04:52:00,48.8,43.9,29.76,WNW,290,0.0,0.0,83,0.00,CLR,,0.00,WeatherDisplay:10.37,2013-09-26 11:52:00,
2013-09-26 04:57:00,48.7,43.8,29.76,WNW,290,0.0,0.0,83,0.00,CLR,,0.00,WeatherDisplay:10.37,2013-09-26 11:57:00,
2013-09-26 05:02:00,48.7,43.8,29.76,WNW,290,0.0,0.0,83,0.00,CLR,,0.00,WeatherDisplay:10.37,2013-09-26 12:02:00,
2013-09-26 05:07:00,48.8,43.9,29.76,WNW,291,0.0,0.0,83,0.00,CLR,,0.00,WeatherDisplay:10.37,2013-09-26 12:07:00,
2013-09-26 05:12:00,48.7,43.5,29.76,WNW,291,0.0,0.0,82,0.00,CLR,,0.00,WeatherDisplay:10.37,2013-09-26 12:12:00,
2013-09-26 05:17:00,48.6,43.4,29.76,WNW,291,0.0,0.0,82,0.00,CLR,,0.00,WeatherDisplay:10.37,2013-09-26 12:17:00,
2013-09-26 05:22:00,48.5,43.6,29.77,WNW,291,0.0,0.0,83,0.00,CLR,,0.00,WeatherDisplay:10.37,2013-09-26 12:22:00,
2013-09-26 05:27:00,48.5,43.9,29.77,WNW,290,0.0,0.0,84,0.00,CLR,,0.00,WeatherDisplay:10.37,2013-09-26 12:27:00,
2013-09-26 05:32:00,48.9,44.0,29.77,West,271,0.0,0.0,83,0.00,CLR,,0.00,WeatherDisplay:10.37,2013-09-26 12:32:00,
2013-09-26 05:37:00,49.2,44.3,29.77,West,271,0.0,0.0,83,0.00,CLR,,0.00,WeatherDisplay:10.37,2013-09-26 12:37:00,
2013-09-26 05:42:00,49.3,44.0,29.77,West,271,0.0,0.0,82,0.00,CLR,,0.00,WeatherDisplay:10.37,2013-09-26 12:42:00,
2013-09-26 05:47:00,49.4,44.1,29.77,West,271,0.0,0.0,82,0.00,CLR,,0.00,WeatherDisplay:10.37,2013-09-26 12:47:00,
2013-09-26 05:52:00,49.4,44.1,29.78,West,271,0.0,0.0,82,0.00,CLR,,0.00,WeatherDisplay:10.37,2013-09-26 12:52:00,
2013-09-26 05:57:00,49.4,44.5,29.78,West,271,0.0,0.0,83,0.00,CLR,,0.00,WeatherDisplay:10.37,2013-09-26 12:57:00,
2013-09-26 06:02:00,49.4,44.5,29.78,West,271,0.0,0.0,83,0.00,CLR,,0.00,WeatherDisplay:10.37,2013-09-26 13:02:00,
2013-09-26 06:07:00,49.4,44.5,29.78,West,271,0.0,0.0,83,0.00,CLR,,0.00,WeatherDisplay:10.37,2013-09-26 13:07:00,
2013-09-26 06:12:00,49.4,44.5,29.78,West,271,0.0,0.0,83,0.00,CLR,,0.00,WeatherDisplay:10.37,2013-09-26 13:12:00,
2013-09-26 06:17:00,49.3,44.4,29.78,West,271,0.0,0.0,83,0.00,CLR,,0.00,WeatherDisplay:10.37,2013-09-26 13:17:00,
2013-09-26 06:22:00,49.1,44.2,29.79,West,271,0.0,0.0,83,0.00,CLR,,0.00,WeatherDisplay:10.37,2013-09-26 13:22:00,
2013-09-26 06:27:00,48.9,44.0,29.79,West,271,0.0,0.0,83,0.00,CLR,,0.00,WeatherDisplay:10.37,2013-09-26 13:27:00,
2013-09-26 06:32:00,48.8,43.9,29.79,West,271,0.0,0.0,83,0.00,CLR,,0.00,WeatherDisplay:10.37,2013-09-26 13:32:00,
2013-09-26 06:37:00,48.6,44.0,29.79,West,271,0.0,0.0,84,0.00,CLR,,0.00,WeatherDisplay:10.37,2013-09-26 13:37:00,
2013-09-26 06:42:00,48.5,43.9,29.79,West,271,0.0,0.0,84,0.00,CLR,,0.00,WeatherDisplay:10.37,2013-09-26 13:42:00,
2013-09-26 06:47:00,48.3,43.7,29.80,West,271,0.0,0.0,84,0.00,CLR,,0.00,WeatherDisplay:10.37,2013-09-26 13:47:00,
2013-09-26 06:52:00,48.2,43.6,29.80,West,271,0.0,0.0,84,0.00,CLR,,0.00,WeatherDisplay:10.37,2013-09-26 13:52:00,
2013-09-26 06:57:00,48.2,43.9,29.80,West,271,0.0,0.0,85,0.00,CLR,,0.00,WeatherDisplay:10.37,2013-09-26 13:57:00,
2013-09-26 07:02:00,48.1,43.8,29.80,West,271,0.0,0.0,85,0.00,CLR,,0.00,WeatherDisplay:10.37,2013-09-26 14:02:00,
2013-09-26 07:07:00,48.0,44.0,29.81,West,271,0.0,0.0,86,0.00,CLR,,0.00,WeatherDisplay:10.37,2013-09-26 14:07:00,
2013-09-26 07:12:00,48.0,43.7,29.81,West,271,0.0,0.0,85,0.00,CLR,,0.00,WeatherDisplay:10.37,2013-09-26 14:12:00,
2013-09-26 07:17:00,48.0,43.7,29.81,West,271,0.0,0.0,85,0.00,CLR,,0.00,WeatherDisplay:10.37,2013-09-26 14:17:00,
2013-09-26 07:22:00,48.1,43.8,29.81,West,271,0.0,0.0,85,0.00,CLR,,0.00,WeatherDisplay:10.37,2013-09-26 14:22:00,
2013-09-26 07:27:00,48.2,43.9,29.81,West,271,0.0,0.0,85,0.00,CLR,,0.00,WeatherDisplay:10.37,2013-09-26 14:27:00,
2013-09-26 07:32:00,48.4,44.1,29.82,West,271,0.0,0.0,85,0.00,CLR,,0.00,WeatherDisplay:10.37,2013-09-26 14:32:00,
2013-09-26 07:37:00,48.7,44.1,29.82,West,271,0.0,0.0,84,0.00,CLR,,0.00,WeatherDisplay:10.37,2013-09-26 14:37:00,
2013-09-26 07:42:00,49.0,44.4,29.82,West,271,0.0,0.0,84,0.00,CLR,,0.00,WeatherDisplay:10.37,2013-09-26 14:42:00,
2013-09-26 07:47:00,49.4,44.5,29.82,West,271,0.0,0.0,83,0.00,CLR,,0.00,WeatherDisplay:10.37,2013-09-26 14:47:00,
2013-09-26 07:52:00,49.9,44.6,29.82,West,271,0.0,0.0,82,0.00,CLR,,0.00,WeatherDisplay:10.37,2013-09-26 14:52:00,
2013-09-26 07:57:00,50.2,44.6,29.83,West,271,0.0,0.0,81,0.00,CLR,,0.00,WeatherDisplay:10.37,2013-09-26 14:57:00,
2013-09-26 08:02:00,50.7,44.8,29.83,West,266,0.0,0.0,80,0.00,CLR,,0.00,WeatherDisplay:10.37,2013-09-26 15:02:00,
2013-09-26 08:07:00,51.0,44.7,29.83,West,267,0.0,0.0,79,0.00,CLR,,0.00,WeatherDisplay:10.37,2013-09-26 15:07:00,
2013-09-26 08:12:00,51.4,44.8,29.83,WSW,253,1.2,0.0,78,0.00,CLR,,0.00,WeatherDisplay:10.37,2013-09-26 15:12:00,
2013-09-26 08:17:00,51.8,44.8,29.83,West,270,1.0,0.0,77,0.00,CLR,,0.00,WeatherDisplay:10.37,2013-09-26 15:17:00,
2013-09-26 08:22:00,52.0,45.0,29.84,West,269,0.0,0.0,77,0.00,CLR,,0.00,WeatherDisplay:10.37,2013-09-26 15:22:00,
2013-09-26 08:27:00,52.2,44.9,29.84,West,269,0.0,0.0,76,0.00,CLR,,0.00,WeatherDisplay:10.37,2013-09-26 15:27:00,
2013-09-26 08:33:00,52.5,45.2,29.84,West,269,0.0,0.0,76,0.00,CLR,,0.00,WeatherDisplay:10.37,2013-09-26 15:33:00,
2013-09-26 08:38:00,52.8,45.4,29.84,WSW,252,0.0,0.0,76,0.00,CLR,,0.00,WeatherDisplay:10.37,2013-09-26 15:38:00,
2013-09-26 08:43:00,53.0,45.6,29.84,West,260,1.2,1.2,76,0.00,CLR,,0.00,WeatherDisplay:10.37,2013-09-26 15:43:00,
2013-09-26 08:48:00,53.2,45.5,29.85,West,260,0.0,0.0,75,0.00,CLR,,0.00,WeatherDisplay:10.37,2013-09-26 15:48:00,
2013-09-26 08:53:00,53.4,45.7,29.85,West,260,0.0,0.0,75,0.00,CLR,,0.00,WeatherDisplay:10.37,2013-09-26 15:53:00,
2013-09-26 08:58:00,53.8,46.1,29.85,WSW,243,0.0,0.0,75,0.00,CLR,,0.00,WeatherDisplay:10.37,2013-09-26 15:58:00,
2013-09-26 09:03:00,54.1,46.3,29.85,WSW,240,1.2,1.2,75,0.00,CLR,,0.00,WeatherDisplay:10.37,2013-09-26 16:03:00,
2013-09-26 09:08:00,54.5,46.4,29.85,WSW,241,1.2,0.0,74,0.00,CLR,,0.00,WeatherDisplay:10.37,2013-09-26 16:08:00,
2013-09-26 09:13:00,54.9,47.1,29.85,WSW,241,0.0,0.0,75,0.00,CLR,,0.00,WeatherDisplay:10.37,2013-09-26 16:13:00,
2013-09-26 09:18:00,55.5,47.0,29.85,WSW,240,0.0,0.0,73,0.00,CLR,,0.00,WeatherDisplay:10.37,2013-09-26 16:18:00,
2013-09-26 09:23:00,55.9,46.6,29.85,SW,215,0.0,0.0,71,0.00,CLR,,0.00,WeatherDisplay:10.37,2013-09-26 16:23:00,
2013-09-26 09:28:00,56.0,46.7,29.85,WSW,238,1.2,0.0,71,0.00,CLR,,0.00,WeatherDisplay:10.37,2013-09-26 16:28:00,
2013-09-26 09:33:00,56.2,47.3,29.85,WSW,238,0.0,0.0,72,0.00,CLR,,0.00,WeatherDisplay:10.37,2013-09-26 16:33:00,
2013-09-26 09:38:00,56.6,47.7,29.85,WSW,238,1.2,1.2,72,0.00,CLR,,0.00,WeatherDisplay:10.37,2013-09-26 16:38:00,
2013-09-26 09:43:00,57.2,47.9,29.85,SSW,207,1.2,1.2,71,0.00,CLR,,0.00,WeatherDisplay:10.37,2013-09-26 16:43:00,
2013-09-26 09:48:00,57.6,47.9,29.85,SE,142,0.0,0.0,70,0.00,CLR,,0.00,WeatherDisplay:10.37,2013-09-26 16:48:00,
2013-09-26 09:53:00,57.9,47.8,29.85,SE,131,1.2,1.2,69,0.00,CLR,,0.00,WeatherDisplay:10.37,2013-09-26 16:53:00,
2013-09-26 09:58:00,58.4,48.3,29.85,WSW,248,0.0,0.0,69,0.00,CLR,,0.00,WeatherDisplay:10.37,2013-09-26 16:58:00,
2013-09-26 10:03:00,58.7,47.8,29.86,ESE,107,1.2,1.2,67,0.00,CLR,,0.00,WeatherDisplay:10.37,2013-09-26 17:03:00,
2013-09-26 10:08:00,58.7,48.2,29.86,SE,131,0.0,0.0,68,0.00,CLR,,0.00,WeatherDisplay:10.37,2013-09-26 17:08:00,
2013-09-26 10:13:00,58.8,47.9,29.86,SSE,161,0.0,0.0,67,0.00,CLR,,0.00,WeatherDisplay:10.37,2013-09-26 17:13:00,
2013-09-26 10:18:00,58.6,47.7,29.86,NNE,20,1.2,1.2,67,0.00,CLR,,0.00,WeatherDisplay:10.37,2013-09-26 17:18:00,
2013-09-26 10:23:00,58.7,48.2,29.86,SSE,152,0.0,0.0,68,0.00,CLR,,0.00,WeatherDisplay:10.37,2013-09-26 17:23:00,
2013-09-26 10:28:00,59.1,48.1,29.86,North,6,2.3,2.3,67,0.00,CLR,,0.00,WeatherDisplay:10.37,2013-09-26 17:28:00,
2013-09-26 10:33:00,59.5,47.7,29.85,SSE,165,1.2,1.2,65,0.00,CLR,,0.00,WeatherDisplay:10.37,2013-09-26 17:33:00,
2013-09-26 10:38:00,59.6,47.8,29.85,ESE,122,1.2,0.0,65,0.00,CLR,,0.00,WeatherDisplay:10.37,2013-09-26 17:38:00,
2013-09-26 10:43:00,59.8,48.4,29.85,WSW,246,0.0,0.0,66,0.00,CLR,,0.00,WeatherDisplay:10.37,2013-09-26 17:43:00,
2013-09-26 10:48:00,60.2,48.0,29.85,WNW,287,2.3,2.3,64,0.00,CLR,,0.00,WeatherDisplay:10.37,2013-09-26 17:48:00,
2013-09-26 10:53:00,60.8,47.7,29.85,SSE,148,0.0,0.0,62,0.00,CLR,,0.00,WeatherDisplay:10.37,2013-09-26 17:53:00,
2013-09-26 10:58:00,61.1,47.5,29.85,SW,217,0.0,0.0,61,0.00,CLR,,0.00,WeatherDisplay:10.37,2013-09-26 17:58:00,
2013-09-26 11:03:00,61.3,46.8,29.86,WNW,294,1.2,1.2,59,0.00,CLR,,0.00,WeatherDisplay:10.37,2013-09-26 18:03:00,
2013-09-26 11:08:00,61.8,46.9,29.86,ESE,108,1.2,1.2,58,0.00,CLR,,0.00,WeatherDisplay:10.37,2013-09-26 18:08:00,
2013-09-26 11:13:00,62.2,47.2,29.86,ESE,122,2.3,2.3,58,0.00,CLR,,0.00,WeatherDisplay:10.37,2013-09-26 18:13:00,
2013-09-26 11:18:00,62.5,46.1,29.86,ESE,114,0.0,0.0,55,0.00,CLR,,0.00,WeatherDisplay:10.37,2013-09-26 18:18:00,
2013-09-26 11:23:00,62.6,46.7,29.85,West,273,2.3,2.3,56,0.00,CLR,,0.00,WeatherDisplay:10.37,2013-09-26 18:23:00,
2013-09-26 11:28:00,62.9,46.5,29.86,NW,315,3.5,3.5,55,0.00,CLR,,0.00,WeatherDisplay:10.37,2013-09-26 18:28:00,
2013-09-26 11:33:00,63.2,46.3,29.85,WSW,249,1.2,1.2,54,0.00,CLR,,0.00,WeatherDisplay:10.37,2013-09-26 18:33:00,
2013-09-26 11:38:00,63.4,44.9,29.85,NW,311,0.0,0.0,51,0.00,CLR,,0.00,WeatherDisplay:10.37,2013-09-26 18:38:00,
2013-09-26 11:43:00,63.8,45.8,29.85,West,263,3.5,3.5,52,0.00,CLR,,0.00,WeatherDisplay:10.37,2013-09-26 18:43:00,
2013-09-26 11:48:00,64.2,45.7,29.85,WSW,243,0.0,0.0,51,0.00,CLR,,0.00,WeatherDisplay:10.37,2013-09-26 18:48:00,
2013-09-26 11:53:00,64.3,45.3,29.85,ESE,111,1.2,0.0,50,0.00,CLR,,0.00,WeatherDisplay:10.37,2013-09-26 18:53:00,
2013-09-26 11:58:00,64.4,45.9,29.85,East,82,2.3,2.3,51,0.00,CLR,,0.00,WeatherDisplay:10.37,2013-09-26 18:58:00,
2013-09-26 12:03:00,64.7,46.7,29.85,WSW,257,0.0,0.0,52,0.00,CLR,,0.00,WeatherDisplay:10.37,2013-09-26 19:03:00,
2013-09-26 12:08:00,65.2,45.5,29.86,West,267,1.2,0.0,49,0.00,CLR,,0.00,WeatherDisplay:10.37,2013-09-26 19:08:00,
2013-09-26 12:13:00,65.7,45.5,29.85,West,277,0.0,0.0,48,0.00,CLR,,0.00,WeatherDisplay:10.37,2013-09-26 19:13:00,
2013-09-26 12:18:00,66.2,45.4,29.85,West,271,1.2,1.2,47,0.00,CLR,,0.00,WeatherDisplay:10.37,2013-09-26 19:18:00,
2013-09-26 12:23:00,66.8,45.9,29.85,SW,234,1.2,1.2,47,0.00,CLR,,0.00,WeatherDisplay:10.37,2013-09-26 19:23:00,
2013-09-26 12:28:00,67.2,45.7,29.85,NW,324,2.3,2.3,46,0.00,CLR,,0.00,WeatherDisplay:10.37,2013-09-26 19:28:00,
2013-09-26 12:33:00,67.8,46.3,29.85,West,260,1.2,1.2,46,0.00,CLR,,0.00,WeatherDisplay:10.37,2013-09-26 19:33:00,
2013-09-26 12:38:00,67.7,45.0,29.85,NW,305,0.0,0.0,44,0.00,CLR,,0.00,WeatherDisplay:10.37,2013-09-26 19:38:00,
2013-09-26 12:43:00,67.6,46.6,29.85,ESE,120,0.0,0.0,47,0.00,CLR,,0.00,WeatherDisplay:10.37,2013-09-26 19:43:00,
2013-09-26 12:48:00,68.1,46.5,29.85,ESE,120,0.0,0.0,46,0.00,CLR,,0.00,WeatherDisplay:10.37,2013-09-26 19:48:00,
2013-09-26 12:53:00,68.6,45.8,29.85,WSW,250,2.3,2.3,44,0.00,CLR,,0.00,WeatherDisplay:10.37,2013-09-26 19:53:00,
2013-09-26 12:58:00,69.4,46.5,29.84,WSW,238,1.2,1.2,44,0.00,CLR,,0.00,WeatherDisplay:10.37,2013-09-26 19:58:00,
2013-09-26 13:03:00,70.1,47.2,29.84,WSW,243,0.0,0.0,44,0.00,CLR,,0.00,WeatherDisplay:10.37,2013-09-26 20:03:00,
2013-09-26 13:08:00,70.6,46.4,29.85,West,262,1.2,1.2,42,0.00,CLR,,0.00,WeatherDisplay:10.37,2013-09-26 20:08:00,
2013-09-26 13:13:00,70.9,46.0,29.85,WSW,238,3.5,3.5,41,0.00,CLR,,0.00,WeatherDisplay:10.37,2013-09-26 20:13:00,
2013-09-26 13:18:00,71.0,46.1,29.85,West,277,4.6,4.6,41,0.00,CLR,,0.00,WeatherDisplay:10.37,2013-09-26 20:18:00,
2013-09-26 13:23:00,70.4,44.9,29.85,WNW,300,1.2,1.2,40,0.00,CLR,,0.00,WeatherDisplay:10.37,2013-09-26 20:23:00,
2013-09-26 13:28:00,70.6,45.1,29.85,North,5,3.5,3.5,40,0.00,CLR,,0.00,WeatherDisplay:10.37,2013-09-26 20:28:00,
2013-09-26 13:33:00,70.3,44.2,29.85,NE,51,3.5,3.5,39,0.00,CLR,,0.00,WeatherDisplay:10.37,2013-09-26 20:33:00,
2013-09-26 13:38:00,70.4,44.9,29.84,NW,307,1.2,1.2,40,0.00,CLR,,0.00,WeatherDisplay:10.37,2013-09-26 20:38:00,
2013-09-26 13:43:00,71.2,45.0,29.84,West,261,3.5,3.5,39,0.00,CLR,,0.00,WeatherDisplay:10.37,2013-09-26 20:43:00,
2013-09-26 13:48:00,71.0,43.4,29.84,NNE,18,5.8,5.8,37,0.00,CLR,,0.00,WeatherDisplay:10.37,2013-09-26 20:48:00,
2013-09-26 13:53:00,70.9,46.0,29.84,WSW,255,1.0,1.0,41,0.00,CLR,,0.00,WeatherDisplay:10.37,2013-09-26 20:53:00,
2013-09-26 13:58:00,71.4,45.1,29.84,North,9,3.5,3.5,39,0.00,CLR,,0.00,WeatherDisplay:10.37,2013-09-26 20:58:00,
2013-09-26 14:03:00,71.6,44.6,29.84,NE,35,2.3,2.3,38,0.00,CLR,,0.00,WeatherDisplay:10.37,2013-09-26 21:03:00,
2013-09-26 14:08:00,72.0,45.0,29.85,NNW,328,3.5,3.5,38,0.00,CLR,,0.00,WeatherDisplay:10.37,2013-09-26 21:08:00,
2013-09-26 14:13:00,71.9,46.3,29.85,SE,143,1.0,1.0,40,0.00,CLR,,0.00,WeatherDisplay:10.37,2013-09-26 21:13:00,
2013-09-26 14:18:00,72.6,46.9,29.84,NW,322,2.3,2.3,40,0.00,CLR,,0.00,WeatherDisplay:10.37,2013-09-26 21:18:00,
2013-09-26 14:23:00,72.8,45.0,29.85,NNW,328,3.5,3.5,37,0.00,CLR,,0.00,WeatherDisplay:10.37,2013-09-26 21:23:00,
2013-09-26 14:28:00,72.5,44.7,29.84,North,354,3.5,3.5,37,0.00,CLR,,0.00,WeatherDisplay:10.37,2013-09-26 21:28:00,
2013-09-26 14:33:00,72.2,44.5,29.84,NW,321,3.5,3.5,37,0.00,CLR,,0.00,WeatherDisplay:10.37,2013-09-26 21:33:00,
2013-09-26 14:38:00,72.5,46.1,29.84,SSW,207,1.2,1.2,39,0.00,CLR,,0.00,WeatherDisplay:10.37,2013-09-26 21:38:00,
2013-09-26 14:43:00,73.5,46.3,29.84,NNW,330,1.2,1.2,38,0.00,CLR,,0.00,WeatherDisplay:10.37,2013-09-26 21:43:00,
2013-09-26 14:49:00,73.9,43.8,29.84,NW,325,3.5,3.5,34,0.00,CLR,,0.00,WeatherDisplay:10.37,2013-09-26 21:49:00,
2013-09-26 14:54:00,73.5,44.2,29.84,NNW,345,2.0,2.0,35,0.00,CLR,,0.00,WeatherDisplay:10.37,2013-09-26 21:54:00,
2013-09-26 14:59:00,74.0,46.1,29.83,WNW,297,0.0,0.0,37,0.00,CLR,,0.00,WeatherDisplay:10.37,2013-09-26 21:59:00,
2013-09-26 15:04:00,74.1,43.9,29.83,WSW,257,3.5,3.5,34,0.00,CLR,,0.00,WeatherDisplay:10.37,2013-09-26 22:04:00,
2013-09-26 15:09:00,73.7,45.1,29.83,SSW,204,0.0,0.0,36,0.00,CLR,,0.00,WeatherDisplay:10.37,2013-09-26 22:09:00,
2013-09-26 15:14:00,74.3,44.9,29.83,North,1,3.0,3.0,35,0.00,CLR,,0.00,WeatherDisplay:10.37,2013-09-26 22:14:00,
2013-09-26 15:19:00,74.2,44.0,29.83,North,359,2.3,2.3,34,0.00,CLR,,0.00,WeatherDisplay:10.37,2013-09-26 22:19:00,
2013-09-26 15:24:00,73.6,45.0,29.83,NNE,27,2.3,2.3,36,0.00,CLR,,0.00,WeatherDisplay:10.37,2013-09-26 22:24:00,
2013-09-26 15:29:00,73.5,44.9,29.82,West,277,1.2,1.2,36,0.00,CLR,,0.00,WeatherDisplay:10.37,2013-09-26 22:29:00,
2013-09-26 15:34:00,74.2,44.8,29.82,North,349,2.3,2.3,35,0.00,CLR,,0.00,WeatherDisplay:10.37,2013-09-26 22:34:00,
2013-09-26 15:39:00,75.0,45.5,29.82,NNE,12,1.2,1.2,35,0.00,CLR,,0.00,WeatherDisplay:10.37,2013-09-26 22:39:00,
2013-09-26 15:44:00,75.8,44.6,29.82,North,351,3.5,3.5,33,0.00,CLR,,0.00,WeatherDisplay:10.37,2013-09-26 22:44:00,
2013-09-26 15:49:00,75.2,44.9,29.82,SW,229,2.3,2.3,34,0.00,CLR,,0.00,WeatherDisplay:10.37,2013-09-26 22:49:00,
2013-09-26 15:54:00,75.5,45.2,29.82,WNW,297,2.3,2.3,34,0.00,CLR,,0.00,WeatherDisplay:10.37,2013-09-26 22:54:00,
2013-09-26 15:59:00,75.2,43.3,29.82,NW,324,1.2,1.2,32,0.00,CLR,,0.00,WeatherDisplay:10.37,2013-09-26 22:59:00,
2013-09-26 16:04:00,74.8,43.0,29.82,NW,319,3.5,3.5,32,0.00,CLR,,0.00,WeatherDisplay:10.37,2013-09-26 23:04:00,
2013-09-26 16:09:00,74.3,45.6,29.81,NNE,33,0.0,0.1,36,0.00,CLR,,0.00,WeatherDisplay:10.37,2013-09-26 23:09:00,
2013-09-26 16:14:00,74.7,43.7,29.81,NE,56,1.2,1.2,33,0.00,CLR,,0.00,WeatherDisplay:10.37,2013-09-26 23:14:00,
2013-09-26 16:19:00,75.1,44.8,29.81,NNW,345,1.2,1.2,34,0.00,CLR,,0.00,WeatherDisplay:10.37,2013-09-26 23:19:00,
2013-09-26 16:24:00,75.7,45.3,29.81,SW,231,0.0,0.0,34,0.00,CLR,,0.00,WeatherDisplay:10.37,2013-09-26 23:24:00,
2013-09-26 16:29:00,76.4,44.4,29.81,NNW,341,2.0,2.0,32,0.00,CLR,,0.00,WeatherDisplay:10.37,2013-09-26 23:29:00,
2013-09-26 16:34:00,75.8,43.8,29.81,WNW,285,0.0,0.0,32,0.00,CLR,,0.00,WeatherDisplay:10.37,2013-09-26 23:34:00,
2013-09-26 16:39:00,76.1,43.3,29.81,NNW,339,2.3,2.3,31,0.00,CLR,,0.00,WeatherDisplay:10.37,2013-09-26 23:39:00,
2013-09-26 16:44:00,75.8,43.8,29.81,West,267,1.2,1.2,32,0.00,CLR,,0.00,WeatherDisplay:10.37,2013-09-26 23:44:00,
2013-09-26 16:49:00,76.7,43.8,29.81,South,171,0.0,0.0,31,0.00,CLR,,0.00,WeatherDisplay:10.37,2013-09-26 23:49:00,
2013-09-26 16:54:00,77.5,44.5,29.81,NNW,347,2.3,2.3,31,0.00,CLR,,0.00,WeatherDisplay:10.37,2013-09-26 23:54:00,
2013-09-26 16:59:00,76.5,42.7,29.81,North,350,3.5,3.5,30,0.00,CLR,,0.00,WeatherDisplay:10.37,2013-09-26 23:59:00,
2013-09-26 17:04:00,75.6,43.7,29.81,NNW,341,2.3,2.3,32,0.00,CLR,,0.00,WeatherDisplay:10.37,2013-09-27 00:04:00,
2013-09-26 17:10:00,76.0,43.2,29.81,NNW,342,1.2,0.0,31,0.00,CLR,,0.00,WeatherDisplay:10.37,2013-09-27 00:10:00,
2013-09-26 17:15:00,76.5,42.7,29.81,NW,319,3.5,3.5,30,0.00,CLR,,0.00,WeatherDisplay:10.37,2013-09-27 00:15:00,
2013-09-26 17:20:00,76.2,43.3,29.81,WSW,252,1.2,0.0,31,0.00,CLR,,0.00,WeatherDisplay:10.37,2013-09-27 00:20:00,
2013-09-26 17:25:00,76.5,42.7,29.81,NNW,335,1.2,1.2,30,0.00,CLR,,0.00,WeatherDisplay:10.37,2013-09-27 00:25:00,
2013-09-26 17:30:00,75.4,41.8,29.81,WSW,252,2.3,2.3,30,0.00,CLR,,0.00,WeatherDisplay:10.37,2013-09-27 00:30:00,
2013-09-26 17:35:00,75.2,42.5,29.81,North,359,1.2,1.2,31,0.00,CLR,,0.00,WeatherDisplay:10.37,2013-09-27 00:35:00,
2013-09-26 17:40:00,74.4,42.6,29.81,NNW,347,3.5,3.5,32,0.00,CLR,,0.00,WeatherDisplay:10.37,2013-09-27 00:40:00,
2013-09-26 17:45:00,73.9,42.2,29.81,SSW,212,1.2,1.2,32,0.00,CLR,,0.00,WeatherDisplay:10.37,2013-09-27 00:45:00,
2013-09-26 17:50:00,73.3,41.6,29.81,North,1,2.0,2.0,32,0.00,CLR,,0.00,WeatherDisplay:10.37,2013-09-27 00:50:00,
2013-09-26 17:55:00,72.5,41.7,29.82,North,352,1.2,0.0,33,0.00,CLR,,0.00,WeatherDisplay:10.37,2013-09-27 00:55:00,
2013-09-26 18:00:00,72.1,41.4,29.82,NNW,340,2.3,2.3,33,0.00,CLR,,0.00,WeatherDisplay:10.37,2013-09-27 01:00:00,
2013-09-26 18:06:00,71.6,40.2,29.82,NNW,341,2.3,2.3,32,0.00,CLR,,0.00,WeatherDisplay:10.37,2013-09-27 01:06:00,
2013-09-26 18:11:00,71.2,40.6,29.82,North,353,2.3,2.3,33,0.00,CLR,,0.00,WeatherDisplay:10.37,2013-09-27 01:11:00,
2013-09-26 18:16:00,70.9,41.9,29.82,NNW,345,1.2,1.2,35,0.00,CLR,,0.00,WeatherDisplay:10.37,2013-09-27 01:16:00,
2013-09-26 18:21:00,70.6,42.3,29.82,SW,215,1.2,1.2,36,0.00,CLR,,0.00,WeatherDisplay:10.37,2013-09-27 01:21:00,
2013-09-26 18:26:00,70.3,42.1,29.82,NW,325,2.3,2.3,36,0.00,CLR,,0.00,WeatherDisplay:10.37,2013-09-27 01:26:00,
2013-09-26 18:31:00,69.9,42.4,29.83,South,170,1.2,0.0,37,0.00,CLR,,0.00,WeatherDisplay:10.37,2013-09-27 01:31:00,
2013-09-26 18:36:00,69.6,42.2,29.83,South,179,0.0,0.0,37,0.00,CLR,,0.00,WeatherDisplay:10.37,2013-09-27 01:36:00,
2013-09-26 18:41:00,69.1,43.1,29.83,SSW,206,0.0,0.0,39,0.00,CLR,,0.00,WeatherDisplay:10.37,2013-09-27 01:41:00,
2013-09-26 18:46:00,68.7,42.7,29.83,SW,218,1.2,1.2,39,0.00,CLR,,0.00,WeatherDisplay:10.37,2013-09-27 01:46:00,
2013-09-26 18:51:00,68.3,43.0,29.83,SW,236,0.0,0.0,40,0.00,CLR,,0.00,WeatherDisplay:10.37,2013-09-27 01:51:00,
2013-09-26 18:56:00,67.9,42.7,29.83,SW,235,0.0,0.0,40,0.00,CLR,,0.00,WeatherDisplay:10.37,2013-09-27 01:56:00,
2013-09-26 19:01:00,67.5,43.0,29.83,WSW,238,1.2,1.2,41,0.00,CLR,,0.00,WeatherDisplay:10.37,2013-09-27 02:01:00,
2013-09-26 19:06:00,67.1,43.2,29.83,NNW,330,0.0,0.0,42,0.00,CLR,,0.00,WeatherDisplay:10.37,2013-09-27 02:06:00,
2013-09-26 19:11:00,66.7,42.9,29.84,NNW,347,1.2,1.2,42,0.00,CLR,,0.00,WeatherDisplay:10.37,2013-09-27 02:11:00,
2013-09-26 19:16:00,66.3,43.1,29.84,NNW,333,0.0,0.0,43,0.00,CLR,,0.00,WeatherDisplay:10.37,2013-09-27 02:16:00,
2013-09-26 19:21:00,65.9,43.4,29.84,NNW,345,1.2,1.2,44,0.00,CLR,,0.00,WeatherDisplay:10.37,2013-09-27 02:21:00,
2013-09-26 19:26:00,65.6,43.1,29.84,NNW,347,1.2,1.2,44,0.00,CLR,,0.00,WeatherDisplay:10.37,2013-09-27 02:26:00,
2013-09-26 19:31:00,65.3,42.8,29.84,NNW,347,0.0,0.0,44,0.00,CLR,,0.00,WeatherDisplay:10.37,2013-09-27 02:31:00,
2013-09-26 19:36:00,65.0,42.5,29.85,NNW,346,1.2,1.2,44,0.00,CLR,,0.00,WeatherDisplay:10.37,2013-09-27 02:36:00,
2013-09-26 19:42:00,64.7,42.9,29.85,NNW,345,1.2,1.2,45,0.00,CLR,,0.00,WeatherDisplay:10.37,2013-09-27 02:42:00,
2013-09-26 19:47:00,64.5,43.3,29.85,NNW,346,0.0,0.0,46,0.00,CLR,,0.00,WeatherDisplay:10.37,2013-09-27 02:47:00,
2013-09-26 19:52:00,64.1,43.4,29.85,NNW,345,0.0,0.0,47,0.00,CLR,,0.00,WeatherDisplay:10.37,2013-09-27 02:52:00,
2013-09-26 19:57:00,63.6,43.5,29.85,NNW,345,0.0,0.0,48,0.00,CLR,,0.00,WeatherDisplay:10.37,2013-09-27 02:57:00,
2013-09-26 20:02:00,63.3,43.8,29.86,NNW,345,0.0,0.0,49,0.00,CLR,,0.00,WeatherDisplay:10.37,2013-09-27 03:02:00,
2013-09-26 20:07:00,62.9,43.4,29.86,NNW,345,0.0,0.0,49,0.00,CLR,,0.00,WeatherDisplay:10.37,2013-09-27 03:07:00,
2013-09-26 20:12:00,62.5,44.1,29.86,NNW,347,0.0,0.0,51,0.00,CLR,,0.00,WeatherDisplay:10.37,2013-09-27 03:12:00,
2013-09-26 20:17:00,62.1,43.7,29.86,NNW,345,0.0,0.0,51,0.00,CLR,,0.00,WeatherDisplay:10.37,2013-09-27 03:17:00,
2013-09-26 20:22:00,61.6,44.3,29.87,NNW,346,0.0,0.0,53,0.00,CLR,,0.00,WeatherDisplay:10.37,2013-09-27 03:22:00,
2013-09-26 20:27:00,61.2,44.9,29.87,NNW,345,0.0,0.0,55,0.00,CLR,,0.00,WeatherDisplay:10.37,2013-09-27 03:27:00,
2013-09-26 20:32:00,60.8,45.9,29.87,NNW,345,0.0,0.0,58,0.00,CLR,,0.00,WeatherDisplay:10.37,2013-09-27 03:32:00,
2013-09-26 20:37:00,60.3,44.5,29.87,NNW,345,0.0,0.0,56,0.00,CLR,,0.00,WeatherDisplay:10.37,2013-09-27 03:37:00,
2013-09-26 20:42:00,60.0,45.6,29.87,NNW,345,0.0,0.0,59,0.00,CLR,,0.00,WeatherDisplay:10.37,2013-09-27 03:42:00,
2013-09-26 20:47:00,59.6,45.2,29.88,NNW,345,0.0,0.0,59,0.00,CLR,,0.00,WeatherDisplay:10.37,2013-09-27 03:47:00,
2013-09-26 20:52:00,59.4,45.5,29.88,NNW,345,0.0,0.0,60,0.00,CLR,,0.00,WeatherDisplay:10.37,2013-09-27 03:52:00,
2013-09-26 20:57:00,59.2,45.8,29.88,NNW,345,0.0,0.0,61,0.00,CLR,,0.00,WeatherDisplay:10.37,2013-09-27 03:57:00,
2013-09-26 21:01:00,59.0,46.8,29.88,NNW,345,0.0,0.0,64,0.00,CLR,,0.00,WeatherDisplay:10.37,2013-09-27 04:01:00,
2013-09-26 21:02:00,59.0,46.4,29.88,NNW,345,0.0,0.0,63,0.00,CLR,,0.00,WeatherDisplay:10.37,2013-09-27 04:02:00,
2013-09-26 21:07:00,58.8,46.2,29.88,NNW,345,0.0,0.0,63,0.00,CLR,,0.00,WeatherDisplay:10.37,2013-09-27 04:07:00,
2013-09-26 21:12:00,58.6,46.5,29.88,NNW,345,0.0,0.0,64,0.00,CLR,,0.00,WeatherDisplay:10.37,2013-09-27 04:12:00,
2013-09-26 21:17:00,58.4,45.8,29.89,NNW,345,0.0,0.0,63,0.00,CLR,,0.00,WeatherDisplay:10.37,2013-09-27 04:17:00,
2013-09-26 21:22:00,58.1,46.0,29.89,NNW,345,0.0,0.0,64,0.00,CLR,,0.00,WeatherDisplay:10.37,2013-09-27 04:22:00,
2013-09-26 21:27:00,57.8,46.1,29.89,NNW,345,0.0,0.0,65,0.00,CLR,,0.00,WeatherDisplay:10.37,2013-09-27 04:27:00,
2013-09-26 21:32:00,57.5,45.8,29.89,NNW,345,0.0,0.0,65,0.00,CLR,,0.00,WeatherDisplay:10.37,2013-09-27 04:32:00,
2013-09-26 21:37:00,57.4,45.3,29.89,NNW,345,0.0,0.0,64,0.00,CLR,,0.00,WeatherDisplay:10.37,2013-09-27 04:37:00,
2013-09-26 21:42:00,57.5,45.0,29.90,NNW,345,0.0,0.0,63,0.00,CLR,,0.00,WeatherDisplay:10.37,2013-09-27 04:42:00,
2013-09-26 21:47:00,57.4,44.5,29.90,NNW,345,0.0,0.0,62,0.00,CLR,,0.00,WeatherDisplay:10.37,2013-09-27 04:47:00,
2013-09-26 21:52:00,57.2,44.3,29.90,NNW,345,0.0,0.0,62,0.00,CLR,,0.00,WeatherDisplay:10.37,2013-09-27 04:52:00,
2013-09-26 21:57:00,57.1,43.8,29.90,NNW,345,0.0,0.0,61,0.00,CLR,,0.00,WeatherDisplay:10.37,2013-09-27 04:57:00,
2013-09-26 22:02:00,57.0,43.7,29.90,NNW,345,0.0,0.0,61,0.00,CLR,,0.00,WeatherDisplay:10.37,2013-09-27 05:02:00,
2013-09-26 22:07:00,56.9,44.8,29.90,NNW,345,0.0,0.0,64,0.00,CLR,,0.00,WeatherDisplay:10.37,2013-09-27 05:07:00,
2013-09-26 22:12:00,56.8,44.7,29.90,NNW,346,0.0,0.0,64,0.00,CLR,,0.00,WeatherDisplay:10.37,2013-09-27 05:12:00,
2013-09-26 22:17:00,56.6,45.0,29.90,NNW,345,0.0,0.0,65,0.00,CLR,,0.00,WeatherDisplay:10.37,2013-09-27 05:17:00,
2013-09-26 22:22:00,56.3,43.9,29.90,NNW,345,0.0,0.0,63,0.00,CLR,,0.00,WeatherDisplay:10.37,2013-09-27 05:22:00,
2013-09-26 22:27:00,56.1,44.1,29.91,NNW,345,0.0,0.0,64,0.00,CLR,,0.00,WeatherDisplay:10.37,2013-09-27 05:27:00,
2013-09-26 22:32:00,55.9,43.5,29.91,NNW,345,0.0,0.0,63,0.00,CLR,,0.00,WeatherDisplay:10.37,2013-09-27 05:32:00,
2013-09-26 22:37:00,55.7,44.5,29.91,NNW,345,0.0,0.0,66,0.00,CLR,,0.00,WeatherDisplay:10.37,2013-09-27 05:37:00,
2013-09-26 22:42:00,55.6,44.0,29.91,NNW,345,0.0,0.0,65,0.00,CLR,,0.00,WeatherDisplay:10.37,2013-09-27 05:42:00,
2013-09-26 22:47:00,55.3,43.3,29.91,NNW,345,0.0,0.0,64,0.00,CLR,,0.00,WeatherDisplay:10.37,2013-09-27 05:47:00,
2013-09-26 22:52:00,55.2,43.2,29.91,NNW,345,0.0,0.0,64,0.00,CLR,,0.00,WeatherDisplay:10.37,2013-09-27 05:52:00,
2013-09-26 22:57:00,55.1,43.1,29.91,NNW,345,0.0,0.0,64,0.00,CLR,,0.00,WeatherDisplay:10.37,2013-09-27 05:57:00,
2013-09-26 23:02:00,55.1,43.5,29.91,NNW,346,0.0,0.0,65,0.00,CLR,,0.00,WeatherDisplay:10.37,2013-09-27 06:02:00,
2013-09-26 23:07:00,55.2,43.6,29.91,NNW,345,0.0,0.0,65,0.00,CLR,,0.00,WeatherDisplay:10.37,2013-09-27 06:07:00,
2013-09-26 23:12:00,55.1,43.1,29.91,NNW,346,0.0,0.0,64,0.00,CLR,,0.00,WeatherDisplay:10.37,2013-09-27 06:12:00,
2013-09-26 23:17:00,55.0,43.0,29.92,NNW,345,0.0,0.0,64,0.00,CLR,,0.00,WeatherDisplay:10.37,2013-09-27 06:17:00,
2013-09-26 23:22:00,54.9,43.7,29.92,NNW,345,0.0,0.0,66,0.00,CLR,,0.00,WeatherDisplay:10.37,2013-09-27 06:22:00,
2013-09-26 23:27:00,54.9,44.1,29.92,NNW,346,0.0,0.0,67,0.00,CLR,,0.00,WeatherDisplay:10.37,2013-09-27 06:27:00,
2013-09-26 23:32:00,55.0,45.0,29.92,NNW,345,0.0,0.0,69,0.00,CLR,,0.00,WeatherDisplay:10.37,2013-09-27 06:32:00,
2013-09-26 23:37:00,54.8,44.0,29.92,NNW,346,0.0,0.0,67,0.00,CLR,,0.00,WeatherDisplay:10.37,2013-09-27 06:37:00,
2013-09-26 23:42:00,54.7,44.0,29.92,NNW,345,0.0,0.0,67,0.00,CLR,,0.00,WeatherDisplay:10.37,2013-09-27 06:42:00,
2013-09-26 23:47:00,54.5,44.2,29.92,NNW,345,0.0,0.0,68,0.00,CLR,,0.00,WeatherDisplay:10.37,2013-09-27 06:47:00,
2013-09-26 23:52:00,54.3,43.6,29.92,NNW,346,0.0,0.0,67,0.00,CLR,,0.00,WeatherDisplay:10.37,2013-09-27 06:52:00,
2013-09-26 23:57:00,54.2,43.5,29.92,NNW,345,0.0,0.0,67,0.00,CLR,,0.00,WeatherDisplay:10.37,2013-09-27 06:57:00,